Weather History for Panama City, FL

Change the Weather History Date:

Monday, January 7, 2013

  Actual Average Record
Temperature  
Mean Temperature 54 °F -  
Max Temperature 63 °F - 72 °F (2012)
Min Temperature 44 °F - 20 °F (2014)
Degree Days  
Heating Degree Days 11    
Cooling Degree Days 0    
Growing Degree Days 4 (Base 50)    
Moisture  
Dew Point 38 °F    
Average Humidity 60    
Maximum Humidity 83    
Minimum Humidity 36    
Precipitation  
Precipitation 0.00 in - 0.00 in (2014)
Sea Level Pressure  
Sea Level Pressure 30.28 in    
Wind  
Wind Speed 8 mph (NNE)    
Max Wind Speed 15 mph    
Max Gust Speed 20 mph    
Visibility 10 miles    
Events      
T = Trace of Precipitation, MM = Missing Value Source: NWS Daily Summary

Daily Weather History Graph

Daily Weather History Graph

Search for Another Location

Airport:

Trip Planner

Search our weather history database for the weather conditions in past years. The results will help you decide how hot, cold, wet, or windy it might be!

Date:

Astronomy

Jan. 07, 2013 Rise Set
Actual Time 7:40 AM EST 5:58 PM EST
Civil Twilight 7:14 AM EST 6:24 PM EST
Nautical Twilight 6:44 AM EST 6:54 PM EST
Astronomical Twilight 6:15 AM EST 7:23 PM EST
Moon 3:08 AM EST (1/7) 2:05 PM EST (1/7)
Length of Visible Light 11h 10m
Length of Day
10h 17m
Waning Crescent, 23% of the Moon is Illuminated
Jan 7
Waning Crescent
Jan 11
New
Jan 18
First Quarter
Jan 26
Full
Feb 3
Last Quarter

Hourly Weather History & Observations

Time (EST) Temp. Windchill Dew Point Humidity Pressure Visibility Wind Dir Wind Speed Gust Speed Precip Events Conditions
12:53 AM 48.9 °F - 42.1 °F 77% 30.28 in 10.0 mi North 11.5 mph - N/A   Clear
1:53 AM 48.0 °F - 41.0 °F 77% 30.28 in 10.0 mi North 10.4 mph - N/A   Clear
2:53 AM 46.9 °F - 39.9 °F 77% 30.27 in 10.0 mi North 10.4 mph - N/A   Clear
3:53 AM 46.0 °F 43.1 °F 39.0 °F 76% 30.27 in 10.0 mi North 5.8 mph - N/A   Clear
4:53 AM 45.0 °F 40.6 °F 39.0 °F 80% 30.27 in 10.0 mi North 8.1 mph - N/A   Clear
5:53 AM 45.0 °F 41.2 °F 37.9 °F 76% 30.28 in 10.0 mi North 6.9 mph - N/A   Clear
6:53 AM 45.0 °F 41.2 °F 37.9 °F 76% 30.29 in 10.0 mi North 6.9 mph - N/A   Clear
7:53 AM 45.0 °F 40.1 °F 37.0 °F 74% 30.29 in 10.0 mi NNE 9.2 mph - N/A   Clear
8:53 AM 45.0 °F 41.8 °F 37.9 °F 76% 30.32 in 10.0 mi NNE 5.8 mph - N/A   Clear
9:53 AM 50.0 °F - 37.0 °F 61% 30.33 in 10.0 mi ENE 6.9 mph 18.4 mph N/A   Scattered Clouds
10:53 AM 53.1 °F - 37.9 °F 57% 30.33 in 10.0 mi NE 9.2 mph - N/A   Clear
11:53 AM 55.9 °F - 37.0 °F 49% 30.30 in 10.0 mi NNE 10.4 mph 19.6 mph N/A   Overcast
12:53 PM 57.9 °F - 37.0 °F 46% 30.28 in 10.0 mi NE 8.1 mph - N/A   Mostly Cloudy
1:53 PM 59.0 °F - 35.6 °F 42% 30.22 in 10.0 mi NE 10.4 mph - N/A   Mostly Cloudy
2:53 PM 60.1 °F - 35.1 °F 39% 30.25 in 10.0 mi NNE 10.4 mph - N/A   Scattered Clouds
3:53 PM 62.1 °F - 36.0 °F 38% 30.25 in 10.0 mi NE 6.9 mph - N/A   Scattered Clouds
4:53 PM 60.1 °F - 36.0 °F 41% 30.26 in 10.0 mi ENE 6.9 mph - N/A   Mostly Cloudy
5:53 PM 57.2 °F - 39.2 °F 51% 30.24 in 10.0 mi NNE 4.6 mph - N/A   Mostly Cloudy
6:53 PM 54.0 °F - 39.9 °F 59% 30.27 in 10.0 mi NNE 4.6 mph - N/A   Overcast
7:53 PM 54.0 °F - 39.0 °F 57% 30.28 in 10.0 mi NNE 8.1 mph - N/A   Overcast
8:53 PM 54.0 °F - 37.9 °F 55% 30.29 in 10.0 mi NE 8.1 mph - N/A   Overcast
9:53 PM 53.1 °F - 39.0 °F 59% 30.28 in 10.0 mi NE 4.6 mph - N/A   Overcast
10:53 PM 51.1 °F - 41.0 °F 68% 30.27 in 10.0 mi Calm Calm - N/A   Partly Cloudy
11:53 PM 50.0 °F - 41.0 °F 71% 30.26 in 10.0 mi NNE 3.5 mph - N/A   Clear